[[{"header":{"parameterUnit":"m.s-1","parameterCategory":1,"la1":30.2991,"la2":30.254,"lo1":-89.0895,"lo2":-89.0444,"dy":0.0017,"dx":0.0017,"nx":28,"ny":28,"refTime":"2025-03-27T09:00:00:Z","depth":0,"parameterNumber":2,"parameterNumberName":"U-component_of_WINDS"},"data":[0,0,0,0,0,0,0,0,0,0,0,0,0,0,0,0,0,0,0,0,0,0,0,0,0,0,0,0,0,0,0,0,0,0,0,0,0,0,0,0,0,0,0,0,0,0,0,0,0,0,0,0,0,0,0,0,0,0,-6.0111,-6.0112,0,-6.0244,-6.0245,-6.0247,-6.0244,-6.0243,-6.0241,-6.0239,-6.0374,-6.0379,-6.0384,0,0,0,0,0,0,0,0,0,0,0,0,0,-5.9853,-5.9858,-6.011,-6.0112,-6.0114,-6.0244,-6.0245,-6.0247,-6.0245,-6.0242,-6.024,-6.0238,-6.0372,-6.0378,-6.0384,0,0,0,0,0,0,0,0,0,0,0,0,0,-5.9973,-5.9859,-6.011,-6.0128,-6.0131,-6.0243,-6.0246,-6.0248,-6.0245,-6.0242,-6.024,-6.0237,-6.037,-6.0378,-6.0385,-6.0488,0,0,-6.0409,-6.0413,0,0,0,0,0,0,0,0,-5.9966,-5.9983,-6.0124,-6.0127,-6.0131,-6.0225,-6.0204,-6.0328,-6.0246,-6.0202,-6.0239,-6.0236,-6.0326,-6.0337,-6.0368,-6.0494,-6.05,-6.041,-6.0415,-6.0418,-6.042,0,0,0,0,0,0,0,-5.9958,-5.9977,-6.0163,-6.0126,-6.013,-6.0129,-6.0144,-6.0228,-6.0277,-6.0205,-6.0205,-6.0221,-6.0327,-6.0361,-6.0371,-6.0502,-6.041,-6.0417,-6.0422,-6.0425,-6.0719,-6.0722,0,0,0,0,0,0,-5.9946,-5.997,-6.0159,-6.0167,-6.004,-6.0136,-6.0152,-6.0197,-6.0276,-6.0286,-6.0224,-6.0221,-6.0349,-6.0362,-6.0376,-6.0501,-6.0418,-6.0426,-6.043,-6.0716,-6.072,-6.0723,0,0,0,0,0,0,-5.9941,-5.9963,-6.0153,-6.0069,-6.0093,-6.0144,-6.0194,-6.0201,-6.0234,-6.029,-6.0299,-6.0248,-6.0347,-6.0365,-6.046,-6.0505,-6.0429,-6.0436,-6.0712,-6.0717,-6.0721,-6.0751,0,0,0,0,0,0,-5.9933,-5.9961,-6.0,-6.007,-6.0098,-6.0235,-6.0197,-6.0206,-6.0248,-6.0246,-6.0316,-6.0325,-6.0346,-6.0449,-6.0468,-6.0515,-6.0442,-6.0708,-6.0714,-6.072,-6.0746,-6.0756,-6.0764,0,0,0,0,0,-5.9924,-6.0003,-6.0002,-6.0025,-6.0148,-6.0238,-6.0254,-6.0277,-6.0252,-6.0292,-6.0328,-6.0323,-6.0498,-6.0458,-6.048,-6.053,-6.0706,-6.0713,-6.0719,-6.0742,-6.0754,-6.0764,0,0,0,0,0,0,-5.9936,-6.0012,-6.0012,-6.0116,-6.0171,-6.0237,-6.0288,-6.029,-6.0352,-6.0347,-6.0374,-6.0389,-6.0484,-6.0517,-6.0472,-6.0634,-6.0599,-6.061,-6.0608,-6.062,-6.0629,-6.0618,-6.0449,0,0,0,0,0,-5.9951,-6.0019,-6.0081,-6.0167,-6.0194,-6.0237,-6.0277,-6.0291,-6.0348,-6.0371,-6.0414,-6.047,-6.0537,-6.0581,-6.0646,-6.0752,-6.0767,-6.0797,-6.0807,-6.0814,-6.0822,-6.0881,-6.0894,-6.0746,-6.0746,-6.0746,0,0,-5.9982,-6.0032,-6.0073,-6.0171,-6.0214,-6.0283,-6.0256,-6.033,-6.0381,-6.0382,-6.0474,-6.0508,-6.0572,-6.0673,-6.0719,-6.0703,-6.0868,-6.0823,-6.0828,-6.0833,-6.0889,-6.0903,-6.0916,-6.075,-6.075,-6.0749,0,0,-6.0073,-6.0119,-6.0194,-6.024,-6.0307,-6.0335,-6.0354,-6.0421,-6.0444,-6.0537,-6.054,-6.0601,-6.0718,-6.0763,-6.0801,-6.0913,-6.0909,-6.0934,-6.098,-6.1036,-6.1048,-6.1058,-6.1097,-6.111,-6.0943,-6.0943,-6.0943,0,-6.0103,-6.0206,-6.0233,-6.0307,-6.035,-6.0356,-6.0433,-6.0476,-6.0561,-6.059,-6.0572,-6.0718,-6.0762,-6.0873,-6.09,-6.0932,-6.0953,-6.0924,-6.1044,-6.1055,-6.1065,-6.1102,-6.1116,-6.0945,-6.0945,-6.0945,-6.0944,0,-6.0239,-6.0311,-6.0365,-6.0447,-6.0497,-6.0572,-6.061,-6.0656,-6.0667,-6.0697,-6.0793,-6.0846,-6.0922,-6.095,-6.0961,-6.1064,-6.1051,-6.1039,-6.1003,-6.1081,-6.1116,-6.113,-6.0948,-6.0948,-6.0947,-6.0946,0,0,-6.0338,-6.0436,-6.0455,-6.0493,-6.0569,-6.0625,-6.0702,-6.0777,-6.0816,-6.0876,-6.094,-6.1039,-6.1028,-6.1072,-6.1088,-6.1138,-6.1222,-6.1119,-6.1121,-6.1134,-6.1337,-6.1344,-6.136,-6.1222,-6.1225,-6.1227,-6.1331,0,-6.0435,-6.057,-6.0597,-6.0714,-6.0781,-6.0789,-6.0856,-6.091,-6.0941,-6.1002,-6.1037,-6.1106,-6.1087,-6.1113,-6.1164,-6.1201,-6.1262,-6.1194,-6.128,-6.1283,-6.126,-6.1378,-6.1386,-6.1481,-6.1345,-6.1347,-6.1349,0,-6.0566,-6.0629,-6.0753,-6.0821,-6.085,-6.0909,-6.0981,-6.104,-6.1102,-6.1121,-6.1171,-6.1183,-6.1262,-6.1226,-6.1335,-6.1288,-6.1326,-6.135,-6.1354,-6.1361,-6.1318,-6.1385,-6.1512,-6.1525,-6.1371,-6.1369,-6.1368,0,-6.0623,-6.074,-6.0829,-6.0861,-6.0943,-6.0984,-6.1021,-6.108,-6.1124,-6.1188,-6.1216,-6.1288,-6.1327,-6.1382,-6.1413,-6.1384,-6.152,-6.1486,-6.1537,-6.1536,-6.1562,-6.1559,-6.1694,-6.1591,-6.1591,-6.1591,-6.159,0,-6.0727,-6.0802,-6.0855,-6.091,-6.0994,-6.1025,-6.1108,-6.1144,-6.1197,-6.1259,-6.1272,-6.1329,-6.1367,-6.1431,-6.1456,-6.1542,-6.156,-6.1577,-6.1582,-6.1574,-6.1572,-6.1596,-6.159,-6.1594,-6.1594,-6.1593,-6.1592,0,-6.0803,-6.0843,-6.094,-6.1011,-6.103,-6.1089,-6.115,-6.1203,-6.1236,-6.1313,-6.1333,-6.1384,-6.1459,-6.1497,-6.159,-6.1607,-6.1704,-6.1706,-6.1682,-6.1684,-6.1731,-6.1725,-6.1884,-6.1906,-6.1791,-6.1792,-6.1793,0,-6.0866,-6.0924,-6.1001,-6.1043,-6.1081,-6.1149,-6.1194,-6.1228,-6.1275,-6.1351,-6.1395,-6.1471,-6.1533,-6.1653,-6.1698,-6.177,-6.1772,-6.1823,-6.1783,-6.1773,-6.177,-6.1765,-6.1771,-6.1829,-6.183,-6.1831,-6.1832,0,-6.0972,-6.0989,-6.1054,-6.1126,-6.118,-6.1239,-6.1296,-6.133,-6.1374,-6.1426,-6.1503,-6.1552,-6.1648,-6.1722,-6.1798,-6.1835,-6.184,-6.1845,-6.186,-6.185,-6.1834,-6.1841,-6.1699,-6.184,-6.1839,-6.1838,-6.1838,-6.1838,-6.1042,-6.1093,-6.1156,-6.1228,-6.1276,-6.133,-6.1383,-6.1423,-6.1488,-6.1569,-6.1586,-6.1667,-6.1729,-6.1831,-6.1871,-6.1936,-6.1924,-6.1947,-6.1952,-6.1956,-6.1957,-6.1826,-6.195,-6.195,-6.1949,-6.1949,-6.1949,0,-6.1146,-6.1188,-6.1254,-6.1335,-6.1392,-6.1394,-6.1459,-6.1506,-6.1577,-6.1635,-6.1697,-6.1786,-6.1859,-6.1911,-6.1986,-6.2027,-6.2031,-6.2045,-6.2041,-6.2049,-6.1964,-6.1942,-6.204,-6.204,-6.204,-6.204,-6.204,-6.204,-6.1207,-6.1295,-6.132,-6.1431,-6.1472,-6.1552,-6.1588,-6.1638,-6.1685,-6.1783,-6.1845,-6.1879,-6.1934,-6.2013,-6.2081,-6.2094,-6.212,-6.2134,-6.2147,-6.2065,-6.2055,-6.2046,-6.2026,-6.214,-6.214,-6.2226,-6.2227,-6.2228]},{"header":{"parameterUnit":"m.s-1","parameterCategory":1,"la1":30.2991,"la2":30.254,"lo1":-89.0895,"lo2":-89.0444,"dy":0.0017,"dx":0.0017,"nx":28,"ny":28,"refTime":"2025-03-27T09:00:00:Z","depth":0,"parameterNumber":3,"parameterNumberName":"V-component_of_WINDS"},"data":[0,0,0,0,0,0,0,0,0,0,0,0,0,0,0,0,0,0,0,0,0,0,0,0,0,0,0,0,0,0,0,0,0,0,0,0,0,0,0,0,0,0,0,0,0,0,0,0,0,0,0,0,0,0,0,0,0,0,3.7291,3.7292,0,3.7382,3.7383,3.7384,3.7408,3.7408,3.7407,3.7407,3.7495,3.7498,3.7501,0,0,0,0,0,0,0,0,0,0,0,0,0,3.7136,3.7139,3.7291,3.7292,3.7293,3.7382,3.7383,3.7384,3.7408,3.7408,3.7407,3.7406,3.7494,3.7498,3.7501,0,0,0,0,0,0,0,0,0,0,0,0,0,3.7212,3.7139,3.7291,3.7316,3.7319,3.7381,3.7383,3.7384,3.7408,3.7408,3.7407,3.7406,3.7493,3.7498,3.7502,3.7544,0,0,3.7515,3.7517,0,0,0,0,0,0,0,0,3.7208,3.7218,3.7311,3.7314,3.7318,3.7383,3.7361,3.7438,3.7409,3.7374,3.7407,3.7406,3.7458,3.7465,3.7484,3.7548,3.7552,3.7515,3.7518,3.752,3.7521,0,0,0,0,0,0,0,3.7203,3.7214,3.7327,3.7312,3.7317,3.7322,3.7332,3.7376,3.7419,3.7377,3.7379,3.739,3.746,3.748,3.7486,3.7553,3.7515,3.7519,3.7522,3.7523,3.7659,3.766,0,0,0,0,0,0,3.7194,3.721,3.7324,3.7329,3.726,3.7325,3.7337,3.7363,3.7419,3.7427,3.7391,3.7391,3.7473,3.7481,3.749,3.7545,3.752,3.7524,3.7526,3.7658,3.7659,3.766,0,0,0,0,0,0,3.719,3.7203,3.732,3.727,3.7286,3.7329,3.7358,3.7365,3.7385,3.7429,3.7437,3.7403,3.7473,3.7484,3.7531,3.7548,3.7526,3.7529,3.7657,3.7658,3.766,3.7654,0,0,0,0,0,0,3.7186,3.7202,3.7219,3.727,3.7288,3.7361,3.7359,3.7367,3.7393,3.7394,3.7443,3.745,3.7473,3.7525,3.7535,3.7553,3.7533,3.7655,3.7657,3.7659,3.7653,3.7655,3.7657,0,0,0,0,0,3.718,3.7212,3.722,3.7233,3.731,3.7362,3.7372,3.7398,3.7394,3.7411,3.744,3.7449,3.7544,3.7529,3.7542,3.7561,3.7654,3.7657,3.7659,3.7652,3.7655,3.7657,0,0,0,0,0,0,3.7159,3.7219,3.7228,3.7278,3.7315,3.7366,3.7388,3.74,3.7438,3.7437,3.7467,3.7478,3.7524,3.7547,3.7529,3.7606,3.7599,3.7604,3.759,3.7593,3.7595,3.7588,3.7536,0,0,0,0,0,3.7161,3.7199,3.7249,3.7288,3.7306,3.7344,3.7367,3.7385,3.7424,3.7439,3.7471,3.7507,3.7546,3.757,3.7608,3.7656,3.7668,3.7676,3.7678,3.7679,3.7683,3.7713,3.7717,3.7668,3.7668,3.7668,0,0,3.7164,3.7201,3.7223,3.7285,3.7315,3.7354,3.7357,3.7396,3.7425,3.7444,3.7493,3.7517,3.756,3.7609,3.7631,3.7629,3.77,3.7682,3.7683,3.7687,3.7715,3.772,3.7724,3.767,3.7669,3.7669,0,0,3.719,3.7221,3.7259,3.729,3.7337,3.7363,3.7372,3.7421,3.7439,3.7488,3.7504,3.7538,3.7603,3.7634,3.7658,3.7697,3.7707,3.7709,3.772,3.7748,3.7752,3.7755,3.7771,3.7776,3.7712,3.7712,3.7712,0,3.7187,3.7246,3.7276,3.7316,3.7343,3.7365,3.7403,3.7431,3.7488,3.7506,3.7503,3.7587,3.7617,3.7674,3.7684,3.7702,3.7714,3.7703,3.7749,3.7753,3.7757,3.7772,3.7778,3.7712,3.7712,3.7712,3.7712,0,3.7242,3.7283,3.7307,3.7364,3.7394,3.7432,3.7468,3.7494,3.751,3.7535,3.7586,3.7623,3.7669,3.7684,3.7698,3.7744,3.7741,3.7743,3.7737,3.7761,3.7776,3.7782,3.7712,3.7712,3.7712,3.7712,0,0,3.7256,3.733,3.7339,3.7366,3.7421,3.7452,3.7492,3.754,3.7563,3.7601,3.7636,3.7692,3.7695,3.7722,3.774,3.7765,3.7796,3.7764,3.7766,3.777,3.785,3.785,3.7856,3.7803,3.7804,3.7805,3.7847,0,3.7289,3.7364,3.7393,3.7453,3.7492,3.7514,3.7549,3.7586,3.7611,3.7648,3.7675,3.7715,3.7715,3.7732,3.7757,3.7787,3.7813,3.7784,3.7836,3.7837,3.7826,3.7863,3.7862,3.79,3.7853,3.7854,3.7855,0,3.7338,3.738,3.7445,3.7497,3.7514,3.7546,3.7593,3.7627,3.767,3.7687,3.7718,3.7736,3.7779,3.777,3.783,3.781,3.7832,3.785,3.7852,3.7859,3.7848,3.7872,3.7913,3.7919,3.7864,3.7863,3.7863,0,3.7344,3.7416,3.7465,3.7487,3.7549,3.757,3.7597,3.7639,3.7667,3.7707,3.7726,3.777,3.7794,3.7828,3.7857,3.7847,3.7915,3.7908,3.793,3.7929,3.7943,3.7942,3.799,3.7956,3.7956,3.7956,3.7956,0,3.7379,3.7418,3.7469,3.7499,3.7544,3.7576,3.762,3.7647,3.7685,3.7721,3.7741,3.7774,3.781,3.7847,3.787,3.7917,3.7927,3.7942,3.7948,3.7941,3.7939,3.7957,3.7955,3.7958,3.7957,3.7957,3.7957,0,3.7394,3.7429,3.7484,3.7539,3.7553,3.7584,3.7631,3.7661,3.7688,3.7733,3.7745,3.7787,3.7833,3.7865,3.7922,3.7938,3.7989,3.7994,3.7975,3.7978,3.7999,3.7997,3.806,3.8071,3.8029,3.8029,3.803,0,3.7414,3.7445,3.7504,3.7531,3.7558,3.7599,3.7629,3.7662,3.7691,3.7744,3.7768,3.7815,3.7855,3.7926,3.7961,3.8006,3.8012,3.8031,3.8019,3.8012,3.8015,3.8013,3.8017,3.8033,3.8034,3.8034,3.8034,0,3.7448,3.7464,3.7506,3.7555,3.759,3.7629,3.7668,3.7688,3.7729,3.7761,3.7809,3.784,3.79,3.7947,3.7995,3.8022,3.8035,3.8038,3.8046,3.8039,3.8028,3.8036,3.7981,3.8036,3.8036,3.8036,3.8036,3.8036,3.7467,3.7497,3.7544,3.759,3.7624,3.7661,3.7693,3.7725,3.7766,3.7819,3.7836,3.7886,3.7929,3.7996,3.8023,3.8063,3.8062,3.8072,3.8075,3.8078,3.8079,3.8021,3.8071,3.8071,3.8071,3.8071,3.8071,0,3.7503,3.7535,3.7577,3.7634,3.767,3.7681,3.7726,3.7756,3.78,3.784,3.788,3.7936,3.7982,3.8021,3.8069,3.8093,3.81,3.8104,3.8104,3.811,3.8076,3.8065,3.8098,3.8098,3.8098,3.8098,3.8098,3.8098,3.7526,3.7578,3.76,3.7669,3.77,3.7751,3.7776,3.781,3.7843,3.7905,3.7944,3.797,3.8011,3.8062,3.8105,3.8115,3.8132,3.8135,3.8147,3.8115,3.8112,3.8109,3.8099,3.8138,3.8138,3.8178,3.8178,3.8179]}]]